Regional Weather Roundup
Issued by NWS Upton, NY

Home | Current Version | Previous Version | Text Only | Print | Product List | Glossary On
Versions: 1 2 3 4 5 6 7 8 9 10 11 12 13 14 15 16 17 18 19 20 21 22 23 24 25 26 27 28 29 30 31 32 33 34 35 36 37 38 39 40 41 42 43 44 45 46 47 48 49 50
609
ASUS41 KOKX 270204
RWROKX

REGIONAL WEATHER ROUNDUP
NATIONAL WEATHER SERVICE NEW YORK NY
1000 PM EDT THU MAY 26 2016

NOTE: "FAIR" INDICATES FEW OR NO CLOUDS BELOW 12,000 FEET WITH NO
SIGNIFICANT WEATHER AND/OR OBSTRUCTIONS TO VISIBILITY.

NYZ071-072-176-178-NJZ106-104-270300-
NEW YORK CITY METRO AREA


CITY           SKY/WX    TMP DP  RH WIND       PRES   REMARKS
CENTRAL PARK   PTCLDY    76  50  40 VRB3      30.07S
LAGUARDIA APRT MOCLDY    75  61  61 S9        30.05R
KENNEDY INTL   MOCLDY    69  58  67 S12       30.07R
NEWARK/LIBERTY MOCLDY    78  54  43 S7        30.04R
BRNX BOT. GARD   N/A     75  52  43 SE1       30.07R
TETERBORO      PTCLDY    77  49  37 S6        30.03R
$$

NYZ177-179-078>081-270300-
LONG ISLAND NEW YORK

CITY           SKY/WX    TMP DP  RH WIND       PRES   REMARKS
FARMINGDALE    CLEAR     69  56  62 S5        30.08R
ISLIP          MOCLDY    67  56  67 S6        30.08R
SHIRLEY        CLEAR     65  57  75 S6        30.10R
RIVERHEAD        N/A     66  57  72 CALM      30.08R
WESTHAMPTON    CLEAR    N/A N/A N/A S3        30.11R
EAST HAMPTON   FAIR      61  56  82 S5        30.09R
MONTAUK POINT    N/A     63  57  81 S6        30.11R
$$

NYZ052-065-067-270300-
HUDSON VALLEY

CITY           SKY/WX    TMP DP  RH WIND       PRES   REMARKS
WHITE PLAINS   CLEAR     70  50  49 SE3       30.06R
NEWBURGH       CLEAR     79  48  34 S7        30.05R
MONTGOMERY     PTCLDY    69  60  73 CALM      30.03R
POUGHKEEPSIE   CLEAR     74  56  53 E3        30.02R
ALBANY         CLOUDY    77  55  46 S3        30.01R
$$

NJZ001-105-106-008-010-013-015-019>022-104-270300-
NEW JERSEY

CITY           SKY/WX    TMP DP  RH WIND       PRES   REMARKS
NEWARK/LIBERTY MOCLDY    78  54  43 S7        30.04R
TETERBORO      PTCLDY    77  49  37 S6        30.03R
CALDWELL       PTCLDY    79  50  36 CALM      30.04R
MORRISTOWN     MOCLDY    68  57  68 CALM      30.04R
SOMERVILLE     CLEAR     71  58  63 SE5       30.03R
SUSSEX         CLOUDY    70  59  68 CALM      30.05R
ANDOVER          N/A     69  59  70 CALM      30.06R
TRENTON        CLEAR     77  54  44 S8        30.05R
MILLVILLE      CLEAR     71  62  73 S3        30.06S
ATLANTIC CITY  CLEAR     69  61  75 S8        30.08R
WRIGHTSTOWN    CLEAR     73  56  54 S7        30.04R
TOMS RIVER     CLEAR     72  54  53 S7        30.07S
BELMAR         CLEAR     70  61  73 S3        30.07S
$$

PAZ047>061-062-071-270300-
EASTERN PENNSYLVANIA

CITY           SKY/WX    TMP DP  RH WIND       PRES   REMARKS
PHILADELPHIA   PTCLDY    76  55  48 SE6       30.05R
ALLENTOWN      CLOUDY    80  58  46 S6        30.04R
SCRANTON       PTCLDY    79  57  46 S6        30.04R
$$

CTZ002-004>006-009-010-012-RIZ004-006-007-MAZ004-011-015-270300-
SOUTHERN NEW ENGLAND
 IN CT

CITY           SKY/WX    TMP DP  RH WIND       PRES   REMARKS
BRADLEY INTL   PTCLDY    76  55  48 S9        30.05R
HARTFORD       CLEAR     76  56  49 S7        30.06R
DANBURY        CLEAR     73  50  44 S8        30.08R
WTRBRY/OXFORD    N/A     70  50  49 S3        30.09R
BRIDGEPORT     CLEAR     70  55  59 S5        30.06R
MERIDEN        CLEAR     69  57  65 CALM      30.07R
NEW HAVEN      CLEAR     65  54  67 CALM      30.07R
CHESTER        FAIR      70  52  52 SW6       30.09R
GROTON         PTCLDY    63  59  87 CALM      30.08R
WILLIMANTIC    CLEAR     75  56  51 SE5       30.08R

 IN RI

CITY           SKY/WX    TMP DP  RH WIND       PRES   REMARKS
PROVIDENCE     MOCLDY    65  57  75 CALM      30.08R
BLOCK ISLAND   CLEAR     63  55  75 SW14      30.10R
WESTERLY       PTCLDY    63  53  70 S3        30.10R

 IN MA

CITY           SKY/WX    TMP DP  RH WIND       PRES   REMARKS
BOSTON         CLOUDY    60  55  83 E10       30.08R
WORCESTER      PTCLDY    71  55  56 SW9       30.09R
WESTFIELD      MOCLDY    72  58  61 S5        30.05R
PROVINCETOWN   CLOUDY    61  55  81 SE14      30.11R
NANTUCKET      CLOUDY    56  53  90 SE8       30.12R
$$

ANZ330-335-338-340-345-350-353-355-270300-
COASTAL MARINE OBSERVATIONS


STATION/POSITION TIME  SKY/WX   TEMP    WIND        PRES    VSBY  WAVE
                                AIR SEA DIR/SP/G                  HT/PER
                 (UTC)          (F)     (DEG/KT/KT) (MB)    (MI)  (FT/S)
NY HARB ENTRANCE 0050            64 61  180/ 14/ 14 1017.3          2/ 7
20S FIRE ISLAND  0050            62 59  190/ 12/ 14 1017.8          2/ 8
GREAT SOUTH BAY  0100            66 69  230/  4/  6   N/A
23 SSW MONTAUK P 0150            60 57  210/ 10/ 12 1018.6          2/ 8
15 E BARNEGAT LI 0122               58                N/A           2/ 8
HUDSON CANYON    0050            59 57              1019.2          2/ 7
KINGS POINT      0100                               1017.0
EXECUTION ROCKS  NOT AVBL
CENTRAL LI SOUND 0115            65     190/  8/ 10   N/A           1
EASTERN LI SOUND 0100            62 53   CALM  /  4   N/A
ROBBINS REEF     0100                               1016.3
$$


>>>>>>>>>>>>>>>>>>>>>>>>>>>> KEY <<<<<<<<<<<<<<<<<<<<<<<<<<<
>                                                          <
>     SKY/WX - SKY CONDITION/PRESENT WEATHER               <
>     TMP    - TEMPERATURE IN FAHRENHEIT                   <
>     DP     - DEWPOINT IN FAHRENHEIT                      <
>     RH     - RELATIVE HUMIDITY IN PERCENT                <
>     WIND   - DIRECTION AND SPEED IN MPH                  <
>     PRES   - MEAN SEA LEVEL PRESSURE IN INCHES OF HG     <
>     WCI    - WIND CHILL INDEX                            <
>     VSB    - VISIBILITY IN MILES                         <
>     HX     - HEAT INDEX                                  <
>     TC     - TEMPERATURE IN CELSIUS                      <
>     VRB    - VARIABLE WIND DIRECTION                     <
>                                                          <
>>>>>>>>>>>>>>>>>>>>>>>>>>>> KEY <<<<<<<<<<<<<<<<<<<<<<<<<<<






USA.gov is the U.S. government's official web portal to all federal, state and local government web resources and services.